CW5456 Hansville WA US current weather conditions

sailwx.info

Wind from 308 at 5 knots gusting 9

Air temperature 8.3° C
Dewpoint 4.0° C

Last reported at 2017-Jan-17 03:45 UTC.
Time now 2017-Jan-17 04:57 UTC

Location: N 47°55' W 122°35'.
View on Google Maps.

See reports from other nearby stations

  
Tides and Currents Weather Stations Pressure Air Temp Water Temp Dewpoint Dewpoint Depression Visibility Wind Speed Wind Dir Waves Ship Positions
date/time (UTC)wind fromknots sea level pressurealtimeterstation pressurevisibilityair tempwater tempwave heightnotes
2017-Jan-17 03:45 308 5 gusting 9 8.3
2017-Jan-17 03:40 277 8 gusting 8 8.3
2017-Jan-17 03:35 023 2 gusting 8 8.9
2017-Jan-17 03:25 220 8.9
2017-Jan-17 03:20 220 2 gusting 4 8.9
2017-Jan-17 03:15 122 8.9
2017-Jan-17 03:10 079 1 gusting 1 8.9
2017-Jan-17 03:05 079 8.9
2017-Jan-17 02:55 216 4 gusting 17 8.9
2017-Jan-17 02:50 298 5 gusting 18 9.4
2017-Jan-17 02:45 118 5 gusting 21 9.4
2017-Jan-17 02:35 120 7 gusting 22 8.9
2017-Jan-17 02:30 107 14 gusting 19 8.9
2017-Jan-17 02:25 104 10 gusting 26 8.9
2017-Jan-17 02:20 083 3 gusting 26 8.9
2017-Jan-17 02:15 125 13 gusting 18 8.9
2017-Jan-17 02:10 089 6 gusting 23 8.9
2017-Jan-17 02:05 164 6 gusting 23 8.9
2017-Jan-17 02:00 108 9 gusting 19 8.9
2017-Jan-17 01:55 077 5 gusting 18 8.9
2017-Jan-17 01:50 130 2 gusting 22 8.9
2017-Jan-17 01:45 156 6 gusting 22 8.9
2017-Jan-17 01:40 114 3 gusting 19 8.9
2017-Jan-17 01:35 112 4 gusting 19 8.9
2017-Jan-17 01:30 123 3 gusting 17 8.9
2017-Jan-17 01:25 104 6 gusting 18 8.9
2017-Jan-17 01:20 112 8 gusting 19 8.9
2017-Jan-17 01:15 125 7 gusting 21 8.9
2017-Jan-17 01:10 137 9 gusting 21 8.9
2017-Jan-17 01:05 108 7 gusting 19 8.9
2017-Jan-17 01:00 108 9 gusting 14 8.9
2017-Jan-17 00:55 108 2 gusting 15 8.9
2017-Jan-17 00:50 127 8 gusting 15 8.9
2017-Jan-17 00:45 109 10 gusting 20 8.9
2017-Jan-17 00:40 137 13 gusting 20 8.9
2017-Jan-17 00:35 118 13 gusting 13 8.9
2017-Jan-17 00:30 069 5 gusting 18 8.9
2017-Jan-17 00:25 132 8 gusting 18 9.4
2017-Jan-17 00:20 089 5 gusting 16 9.4
2017-Jan-17 00:15 102 15 gusting 16 9.4
2017-Jan-17 00:10 113 8 gusting 20 9.4
2017-Jan-17 00:05 079 6 gusting 20 8.9
2017-Jan-17 00:00 104 6 gusting 13 8.9
2017-Jan-16 23:55 139 5 gusting 12 8.9
2017-Jan-16 23:50 116 11 gusting 12 9.4
2017-Jan-16 23:45 090 11 gusting 14 9.4
2017-Jan-16 23:40 125 2 gusting 14 9.4
2017-Jan-16 23:35 134 5 gusting 10 9.4
2017-Jan-16 23:30 098 3 gusting 10 8.9
2017-Jan-16 23:25 148 10 gusting 10 8.9
2017-Jan-16 23:20 098 8 gusting 12 8.9
2017-Jan-16 23:15 098 4 gusting 12 8.9
2017-Jan-16 23:10 101 3 gusting 17 8.9
2017-Jan-16 23:05 092 6 gusting 17 9.4
2017-Jan-16 23:00 128 10 gusting 16 10.0
2017-Jan-16 22:55 118 7 gusting 11 10.0
2017-Jan-16 22:50 114 6 gusting 12 10.0
2017-Jan-16 22:45 136 7 gusting 13 10.0
2017-Jan-16 22:40 100 10 gusting 14 10.0
2017-Jan-16 22:35 085 6 gusting 14 10.0
2017-Jan-16 22:30 098 6 gusting 15 10.0
2017-Jan-16 22:25 106 6 gusting 15 9.4
2017-Jan-16 22:20 127 6 gusting 13 10.0
2017-Jan-16 22:15 122 8 gusting 13 10.0
2017-Jan-16 22:10 157 8 gusting 13 10.0
2017-Jan-16 22:05 146 6 gusting 13 10.0
2017-Jan-16 22:00 117 7 gusting 14 10.0
2017-Jan-16 21:55 137 10 gusting 14 10.0
2017-Jan-16 21:50 101 10.0
2017-Jan-16 21:45 106 2 gusting 10 10.0
2017-Jan-16 21:40 071 9.4
2017-Jan-16 21:35 108 3 gusting 13 9.4
2017-Jan-16 21:30 177 6 gusting 13 9.4
2017-Jan-16 21:25 150 1 gusting 13 9.4
2017-Jan-16 21:20 117 4 gusting 13 9.4
2017-Jan-16 21:15 129 2 gusting 13 9.4
2017-Jan-16 21:10 125 2 gusting 13 9.4
2017-Jan-16 21:05 137 7 gusting 13 9.4
2017-Jan-16 21:00 182 6 gusting 12 10.0
2017-Jan-16 20:55 133 6 gusting 15 10.0
2017-Jan-16 20:50 084 1 gusting 15 10.0
2017-Jan-16 20:45 121 10 gusting 14 10.0
2017-Jan-16 20:40 109 6 gusting 12 9.4
2017-Jan-16 20:35 131 6 gusting 11 8.9
2017-Jan-16 20:30 141 3 gusting 9 8.3
2017-Jan-16 20:25 127 7 gusting 9 8.3
2017-Jan-16 20:20 158 2 gusting 9 8.3
2017-Jan-16 20:15 125 3 gusting 9 7.8
2017-Jan-16 20:10 151 6 gusting 9 7.8
2017-Jan-16 20:05 145 7.8
2017-Jan-16 20:00 108 6 gusting 8 7.2
2017-Jan-16 19:55 179 7.2
2017-Jan-16 19:50 070 2 gusting 11 6.7
2017-Jan-16 19:44 108 6 gusting 11 6.7
2017-Jan-16 19:39 142 6 gusting 11 6.7
2017-Jan-16 19:34 105 6 gusting 11 6.7
2017-Jan-16 19:30 114 5 gusting 10 6.1
2017-Jan-16 19:25 133 5 gusting 10 6.1
2017-Jan-16 19:20 153 3 gusting 8 6.1
2017-Jan-16 19:14 110 6 gusting 8 6.1
2017-Jan-16 19:09 090 5 gusting 8 6.1
2017-Jan-16 19:04 101 4 gusting 8 5.6
2017-Jan-16 19:00 115 3 gusting 8 5.6
2017-Jan-16 18:55 121 1 gusting 7 5.6
2017-Jan-16 18:50 128 1 gusting 7 5.6
2017-Jan-16 18:45 143 0 gusting 7 5.6
2017-Jan-16 18:40 116 1 gusting 7 5.0
2017-Jan-16 18:34 129 2 gusting 8 5.0
2017-Jan-16 18:30 145 7 gusting 8 5.0
2017-Jan-16 18:24 124 2 gusting 3 5.0
2017-Jan-16 18:19 114 1 gusting 7 4.4
2017-Jan-16 18:14 114 3 gusting 7 4.4
2017-Jan-16 18:09 134 3 gusting 7 4.4
2017-Jan-16 18:04 107 2 gusting 7 4.4
2017-Jan-16 17:59 143 6 gusting 7 5.0
2017-Jan-16 17:54 106 2 gusting 7 4.4
2017-Jan-16 17:49 136 1 gusting 7 4.4
2017-Jan-16 17:44 109 3.9
2017-Jan-16 17:39 150 3.9
2017-Jan-16 17:34 118 3 gusting 7 3.3
2017-Jan-16 17:29 106 2 gusting 5 3.3
2017-Jan-16 17:24 121 0 gusting 5 2.8
2017-Jan-16 17:19 104 3 gusting 7 2.8
2017-Jan-16 17:14 114 2 gusting 7 2.8
2017-Jan-16 17:09 107 3 gusting 6 2.2
2017-Jan-16 17:04 129 2 gusting 2 2.2
2017-Jan-16 16:59 128 2.2
2017-Jan-16 16:54 128 2.2
2017-Jan-16 16:49 128 2.2
2017-Jan-16 16:44 128 1.7
2017-Jan-16 16:39 128 1.7
2017-Jan-16 16:34 128 2 gusting 2 1.7
2017-Jan-16 16:29 128 1 gusting 2 1.7
2017-Jan-16 16:24 154 1.1
2017-Jan-16 16:19 154 1.1
2017-Jan-16 16:14 154 1.1
2017-Jan-16 16:09 154 1.1
2017-Jan-16 16:04 154 1.1
2017-Jan-16 15:59 154 1.1
2017-Jan-16 15:54 154 1.1
2017-Jan-16 15:44 154 1.1
2017-Jan-16 15:39 156 1 gusting 2 1.1
2017-Jan-16 15:34 157 1.1
2017-Jan-16 15:29 157 1 gusting 5 1.7
2017-Jan-16 15:24 141 4 gusting 5 1.7
2017-Jan-16 15:14 123 1 gusting 2 1.7
2017-Jan-16 15:05 122 1.7
2017-Jan-16 15:00 122 1.7
2017-Jan-16 14:55 123 1.7
2017-Jan-16 14:50 122 1.7
2017-Jan-16 14:44 123 1 gusting 1 1.7
2017-Jan-16 14:35 123 1.7
2017-Jan-16 14:30 123 3 gusting 3 1.7
2017-Jan-16 14:24 122 1.1
2017-Jan-16 14:15 121 0 gusting 1 1.1
2017-Jan-16 14:10 121 1.1
2017-Jan-16 14:05 122 1.1
2017-Jan-16 13:59 122 1.1
2017-Jan-16 13:50 121 1 gusting 1 1.1
2017-Jan-16 13:45 121 1.1
2017-Jan-16 13:39 121 1.1
2017-Jan-16 13:30 121 1.1
2017-Jan-16 13:25 121 1.7
2017-Jan-16 13:20 121 1.7
2017-Jan-16 13:15 121 0 gusting 5 1.7
2017-Jan-16 13:10 121 1 gusting 5 1.7
2017-Jan-16 13:05 145 1 gusting 4 1.7
2017-Jan-16 13:00 170 1.7
2017-Jan-16 12:55 123 0 gusting 5 2.2
2017-Jan-16 12:50 140 4 gusting 5 2.2
2017-Jan-16 12:45 127 1 gusting 3 2.2
2017-Jan-16 12:40 127 1 gusting 3 2.2
2017-Jan-16 12:35 109 0 gusting 3 2.2
2017-Jan-16 12:30 108 0 gusting 4 2.2
2017-Jan-16 12:25 110 1 gusting 5 2.2
2017-Jan-16 12:20 111 3 gusting 5 2.2
2017-Jan-16 12:15 093 2 gusting 4 2.2
2017-Jan-16 12:10 093 4 gusting 4 1.7
2017-Jan-16 12:05 096 1 gusting 4 1.7
2017-Jan-16 12:00 110 2 gusting 4 1.7
2017-Jan-16 11:50 133 3 gusting 4 1.7
2017-Jan-16 11:45 132 1 gusting 4 1.7
2017-Jan-16 11:40 132 4 gusting 4 1.7
2017-Jan-16 11:30 133 0 gusting 3 1.7
2017-Jan-16 11:25 132 1 gusting 1 1.7
2017-Jan-16 11:20 133 0 gusting 1 1.7
2017-Jan-16 11:15 133 2.2
2017-Jan-16 11:10 132 2.2
2017-Jan-16 11:05 132 2.2
2017-Jan-16 11:00 132 1.7
2017-Jan-16 10:50 133 2.2
2017-Jan-16 10:45 132 2.2
2017-Jan-16 10:35 133 0 gusting 3 2.2
2017-Jan-16 10:30 132 1 gusting 5 2.2
2017-Jan-16 10:25 132 1 gusting 5 2.2
2017-Jan-16 10:20 137 3 gusting 5 2.2
2017-Jan-16 10:15 137 3 gusting 5 2.2
2017-Jan-16 10:10 137 3 gusting 5 2.2
2017-Jan-16 10:05 143 3 gusting 5 2.2
2017-Jan-16 10:00 142 3 gusting 5 2.8
2017-Jan-16 09:55 140 1 gusting 5 2.8
2017-Jan-16 09:50 139 3 gusting 5 2.8
2017-Jan-16 09:45 137 1 gusting 5 2.8
2017-Jan-16 09:40 133 4 gusting 5 2.8
2017-Jan-16 09:35 134 1 gusting 5 2.8
2017-Jan-16 09:30 133 3 gusting 5 2.8
2017-Jan-16 09:25 131 1 gusting 4 2.8
2017-Jan-16 09:20 131 3 gusting 5 2.8
2017-Jan-16 09:15 131 1 gusting 5 2.8
2017-Jan-16 09:10 140 3 gusting 5 2.8
2017-Jan-16 09:05 145 2 gusting 5 2.8
2017-Jan-16 09:00 145 4 gusting 4 2.8
2017-Jan-16 08:55 139 3 gusting 4 2.8
2017-Jan-16 08:50 135 1 gusting 3 2.8
2017-Jan-16 08:45 135 3 gusting 3 2.8
2017-Jan-16 08:40 135 0 gusting 4 2.8
2017-Jan-16 08:35 135 1 gusting 4 2.8
2017-Jan-16 08:30 135 3 gusting 4 2.8
2017-Jan-16 08:25 135 1 gusting 4 2.8
2017-Jan-16 08:20 135 3 gusting 5 2.8
2017-Jan-16 08:15 135 1 gusting 5 2.8
2017-Jan-16 08:10 140 3 gusting 5 2.8
2017-Jan-16 08:05 141 1 gusting 4 2.8
2017-Jan-16 08:00 141 3 gusting 4 2.8
2017-Jan-16 07:55 140 1 gusting 3 2.8
2017-Jan-16 07:50 141 0 gusting 3 2.8
2017-Jan-16 07:45 141 1 gusting 4 2.8
2017-Jan-16 07:40 141 0 gusting 4 2.8
2017-Jan-16 07:35 140 4 gusting 4 2.8
2017-Jan-16 07:30 141 4 gusting 4 2.2
2017-Jan-16 07:25 141 4 gusting 4 2.2
2017-Jan-16 07:20 141 3 gusting 5 2.2
2017-Jan-16 07:15 141 3 gusting 5 2.2
2017-Jan-16 07:10 139 2 gusting 4 2.2
2017-Jan-16 07:05 137 1 gusting 3 2.2
2017-Jan-16 07:00 137 1 gusting 3 2.2
2017-Jan-16 06:55 137 0 gusting 3 2.2
2017-Jan-16 06:50 137 1 gusting 3 2.2
2017-Jan-16 06:45 137 1 gusting 3 2.2
2017-Jan-16 06:40 137 0 gusting 1 2.2
2017-Jan-16 06:35 137 0 gusting 1 2.2
2017-Jan-16 06:30 137 2.2
2017-Jan-16 06:25 136 0 gusting 1 2.2
2017-Jan-16 06:20 137 2.2
2017-Jan-16 06:15 137 2.2
2017-Jan-16 06:10 137 2.2
2017-Jan-16 06:05 137 2.2
2017-Jan-16 06:00 137 2.2
2017-Jan-16 05:55 136 2.2
2017-Jan-16 05:50 137 2.2
2017-Jan-16 05:45 136 2.2
2017-Jan-16 05:40 137 2.2
2017-Jan-16 05:35 137 0 gusting 3 2.2
2017-Jan-16 05:30 137 1 gusting 3 2.2
2017-Jan-16 05:25 137 1 gusting 3 2.2
2017-Jan-16 05:20 137 1 gusting 3 2.2
2017-Jan-16 05:15 137 3 gusting 4 2.2
2017-Jan-16 05:10 137 1 gusting 4 2.2
2017-Jan-16 05:05 137 1 gusting 4 2.2
2017-Jan-16 05:00 137 3 gusting 4 2.2
2017-Jan-16 04:55 137 1 gusting 3 1.7
2017-Jan-16 04:50 136 1 gusting 3 1.7
2017-Jan-16 04:45 136 1 gusting 3 1.7
2017-Jan-16 04:40 137 1 gusting 3 2.2
2017-Jan-16 04:35 137 2.2
2017-Jan-16 04:30 136 1 gusting 1 2.2
2017-Jan-16 04:25 137 1.7
2017-Jan-16 04:20 137 1.7
2017-Jan-16 04:15 137 1.7
2017-Jan-16 04:10 136 1.7
2017-Jan-16 04:05 136 1.7
2017-Jan-16 04:00 137 1.7
2017-Jan-16 03:55 137 1.7
2017-Jan-16 03:50 137 1.7
2017-Jan-16 03:45 137 1.7
2017-Jan-16 03:40 137 1.7
2017-Jan-16 03:35 136 1 gusting 4 1.7
2017-Jan-16 03:29 136 0 gusting 5 1.7
2017-Jan-16 03:24 137 1 gusting 6 1.7
2017-Jan-16 03:20 137 4 gusting 6 1.7
2017-Jan-16 03:14 146 2 gusting 5 1.7
2017-Jan-16 03:09 145 5 gusting 5 1.7
2017-Jan-16 03:05 133 3 gusting 6 1.7
2017-Jan-16 02:59 133 3 gusting 6 2.2
2017-Jan-16 02:54 128 4 gusting 6 2.2
2017-Jan-16 02:49 137 4 gusting 5 2.2
2017-Jan-16 02:44 139 3 gusting 5 2.2
2017-Jan-16 02:39 100 3 gusting 3 2.2
2017-Jan-16 02:34 100 2 gusting 3 2.2
2017-Jan-16 02:29 100 2 gusting 3 2.2
2017-Jan-16 02:25 100 2 gusting 3 2.2
2017-Jan-16 02:19 100 2 gusting 3 2.2
2017-Jan-16 02:15 100 2 gusting 3 2.8
2017-Jan-16 02:09 100 1 gusting 3 2.8
2017-Jan-16 02:04 100 1 gusting 3 2.8
2017-Jan-16 02:00 100 1 gusting 2 2.8
2017-Jan-16 01:54 100 1 gusting 2 2.8
2017-Jan-16 01:50 100 2 gusting 2 2.8
2017-Jan-16 01:44 058 1 gusting 2 2.8
2017-Jan-16 01:39 058 0 gusting 2 2.8
2017-Jan-16 01:34 058 2 gusting 2 2.8
2017-Jan-16 01:29 015 0 gusting 1 2.8
2017-Jan-16 01:24 014 0 gusting 1 2.8
2017-Jan-16 01:19 014 0 gusting 1 2.8
2017-Jan-16 01:14 014 1 gusting 1 2.8
2017-Jan-16 01:09 014 1 gusting 1 3.3
2017-Jan-16 01:04 014 0 gusting 1 3.3
2017-Jan-16 00:59 014 0 gusting 1 3.3
2017-Jan-16 00:54 014 3.3
2017-Jan-16 00:49 014 3.3
2017-Jan-16 00:44 014 3.3
2017-Jan-16 00:39 014 3.3
2017-Jan-16 00:34 014 3.9
2017-Jan-16 00:29 014 3.9
2017-Jan-16 00:24 014 3.9
2017-Jan-16 00:19 014 3.9
2017-Jan-16 00:14 014 3.9
2017-Jan-16 00:09 014 4.4
2017-Jan-16 00:04 014 4.4
2017-Jan-15 23:59 014 4.4
2017-Jan-15 23:54 014 4.4
2017-Jan-15 23:49 014 4.4
2017-Jan-15 23:44 014 4.4
2017-Jan-15 23:39 014 4.4
2017-Jan-15 23:34 014 4.4
2017-Jan-15 23:29 014 4.4
2017-Jan-15 23:24 014 0 gusting 2 5.0
2017-Jan-15 23:15 014 1 gusting 2 5.0
2017-Jan-15 23:10 014 0 gusting 2 5.0
2017-Jan-15 23:05 014 2 gusting 2 5.0
2017-Jan-15 23:00 014 0 gusting 2 5.0
2017-Jan-15 22:55 014 0 gusting 2 5.0
2017-Jan-15 22:50 014 1 gusting 1 5.0
2017-Jan-15 22:45 014 1 gusting 1 5.0
2017-Jan-15 22:39 014 5.0
2017-Jan-15 22:30 014 0 gusting 2 5.0
2017-Jan-15 22:25 014 2 gusting 2 5.0
2017-Jan-15 22:20 014 1 gusting 2 4.4
2017-Jan-15 22:15 014 0 gusting 3 5.0
2017-Jan-15 22:09 014 1 gusting 3 5.0
2017-Jan-15 22:00 025 2 gusting 3 5.0
2017-Jan-15 21:55 027 1 gusting 3 4.4
2017-Jan-15 21:50 027 2 gusting 3 4.4
2017-Jan-15 21:45 027 2 gusting 3 4.4
2017-Jan-15 21:39 027 1 gusting 2 4.4
2017-Jan-15 21:30 027 1 gusting 3 4.4
2017-Jan-15 21:25 027 2 gusting 2 4.4
2017-Jan-15 21:20 027 1 gusting 3 4.4
2017-Jan-15 21:15 027 1 gusting 4 4.4
2017-Jan-15 21:10 027 1 gusting 4 4.4
2017-Jan-15 21:05 026 3 gusting 4 4.4
2017-Jan-15 21:00 027 2 gusting 4 4.4
2017-Jan-15 20:55 024 4 gusting 4 4.4
2017-Jan-15 20:50 021 2 gusting 4 4.4
2017-Jan-15 20:45 016 2 gusting 4 4.4
2017-Jan-15 20:40 021 3 gusting 4 4.4
2017-Jan-15 20:35 022 2 gusting 4 4.4
2017-Jan-15 20:30 016 2 gusting 4 4.4
2017-Jan-15 20:25 017 3 gusting 3 4.4
2017-Jan-15 20:20 072 1 gusting 3 4.4
2017-Jan-15 20:15 116 0 gusting 3 4.4
2017-Jan-15 20:10 059 1 gusting 2 4.4
2017-Jan-15 20:05 145 4.4
2017-Jan-15 19:55 146 3.9
2017-Jan-15 19:45 146 1 gusting 2 3.9
2017-Jan-15 19:40 146 0 gusting 1 3.9
2017-Jan-15 19:35 146 3.9
2017-Jan-15 19:25 146 0 gusting 1 3.9
2017-Jan-15 19:20 146 0 gusting 1 3.9
2017-Jan-15 19:15 146 3.9
2017-Jan-15 19:05 145 3.3
2017-Jan-15 19:00 146 0 gusting 1 3.3
2017-Jan-15 18:55 146 3.3
2017-Jan-15 18:45 146 2.8
2017-Jan-15 18:40 146 2.8
2017-Jan-15 18:35 146 0 gusting 4 2.8
2017-Jan-15 18:25 154 2.2
2017-Jan-15 18:20 154 2.2
2017-Jan-15 18:15 155 1 gusting 2 2.2
2017-Jan-15 18:10 156 0 gusting 1 2.2
2017-Jan-15 18:05 156 2.2
2017-Jan-15 18:00 156 2.2
2017-Jan-15 17:55 155 0 gusting 5 2.2
2017-Jan-15 17:50 124 1 gusting 4 1.7
2017-Jan-15 17:45 108 2 gusting 3 1.7
2017-Jan-15 17:40 108 1 gusting 3 1.7
2017-Jan-15 17:35 108 0 gusting 3 1.1
2017-Jan-15 17:30 081 0 gusting 3 0.6
2017-Jan-15 17:25 081 2 gusting 3 0.6
2017-Jan-15 17:20 081 1 gusting 3 0.6
2017-Jan-15 17:15 081 0 gusting 2 -0.0
2017-Jan-15 17:10 081 0 gusting 2 -0.0
2017-Jan-15 17:05 081 1 gusting 2 -0.0
2017-Jan-15 17:00 080 0 gusting 3 -0.0
2017-Jan-15 16:55 080 2 gusting 3 -0.0
2017-Jan-15 16:50 062 3 gusting 3 -0.0
2017-Jan-15 16:45 055 -0.0
2017-Jan-15 16:40 055 0.6
2017-Jan-15 16:35 055 0.6
2017-Jan-15 16:30 055 0.6
2017-Jan-15 16:25 055 1 gusting 1 0.6
2017-Jan-15 16:20 055 0 gusting 1 0.6
2017-Jan-15 16:15 055 0.6
2017-Jan-15 16:10 055 0.6
2017-Jan-15 16:05 055 0.6
2017-Jan-15 16:00 055 0 gusting 2 0.6
2017-Jan-15 15:55 054 1 gusting 2 0.6
2017-Jan-15 15:50 054 1 gusting 2 0.6
2017-Jan-15 15:45 054 0 gusting 2 0.6
2017-Jan-15 15:40 054 1 gusting 2 0.6
2017-Jan-15 15:35 054 0.6
2017-Jan-15 15:30 054 0.6
2017-Jan-15 15:25 054 0.6
2017-Jan-15 15:20 054 0.6
2017-Jan-15 15:15 054 0 gusting 0 0.6
2017-Jan-15 15:10 054 0.6
2017-Jan-15 15:05 054 0.6
2017-Jan-15 15:00 054 0.6
2017-Jan-15 14:55 054 0.6
2017-Jan-15 14:50 054 0.6
2017-Jan-15 14:45 054 0.6
2017-Jan-15 14:40 054 0.6
2017-Jan-15 14:35 054 0.6
2017-Jan-15 14:30 054 0.6
2017-Jan-15 14:25 054 0.6
2017-Jan-15 14:20 054 0.6
2017-Jan-15 14:15 054 0.6
2017-Jan-15 14:10 054 0 gusting 1 0.6
2017-Jan-15 14:05 054 0 gusting 1 0.6
2017-Jan-15 14:00 054 1 gusting 1 0.6
2017-Jan-15 13:55 054 0.6
2017-Jan-15 13:50 054 0 gusting 1 0.6
2017-Jan-15 13:45 054 0.6
2017-Jan-15 13:40 054 0.6
2017-Jan-15 13:35 054 0.6
2017-Jan-15 13:30 054 0 gusting 1 0.6
2017-Jan-15 13:25 054 0 gusting 1 0.6
2017-Jan-15 13:20 054 0.6
2017-Jan-15 13:15 054 1 gusting 1 1.1
2017-Jan-15 13:10 054 1.1
2017-Jan-15 13:05 054 1.1
2017-Jan-15 13:00 054 1.1
2017-Jan-15 12:55 054 1.1
2017-Jan-15 12:50 054 0 gusting 1 0.6
2017-Jan-15 12:45 054 0.6
2017-Jan-15 12:40 054 1 gusting 2 1.1
2017-Jan-15 12:35 054 1.1
2017-Jan-15 12:30 054 1.1
2017-Jan-15 12:25 054 0.6
2017-Jan-15 12:20 054 0.6
2017-Jan-15 12:15 054 1 gusting 2 1.1
2017-Jan-15 12:10 054 1 gusting 2 1.1
2017-Jan-15 12:05 054 1 gusting 2 1.1
2017-Jan-15 12:00 054 0 gusting 1 1.1
2017-Jan-15 11:55 054 1.1
2017-Jan-15 11:50 054 1 gusting 1 1.1
2017-Jan-15 11:45 054 0 gusting 1 1.7
2017-Jan-15 11:40 054 1.7
2017-Jan-15 11:35 054 1.7
2017-Jan-15 11:30 054 1.7
2017-Jan-15 11:25 054 0 gusting 1 1.7
2017-Jan-15 11:20 033 1.7
2017-Jan-15 11:15 033 1.7
2017-Jan-15 11:10 033 1 gusting 1 1.7
2017-Jan-15 11:05 033 1.7
2017-Jan-15 11:00 033 1.7
2017-Jan-15 10:54 033 1.7
2017-Jan-15 10:49 033 1.7
2017-Jan-15 10:44 032 1.7
2017-Jan-15 10:40 033 1.7
2017-Jan-15 10:34 033 0 gusting 1 1.7
2017-Jan-15 10:29 033 1.7
2017-Jan-15 10:24 033 1.7
2017-Jan-15 10:19 033 1.7
2017-Jan-15 10:14 033 1.7
2017-Jan-15 10:09 033 1.7
2017-Jan-15 10:04 033 1.7
2017-Jan-15 10:00 033 0 gusting 1 2.2
2017-Jan-15 09:55 033 1 gusting 2 2.2
2017-Jan-15 09:50 033 1 gusting 2 2.2
2017-Jan-15 09:44 033 0 gusting 2 2.2
2017-Jan-15 09:40 033 1 gusting 3 2.2
2017-Jan-15 09:34 033 1 gusting 3 2.2
2017-Jan-15 09:29 033 3 gusting 3 2.2
2017-Jan-15 09:24 032 2.8
2017-Jan-15 09:20 032 2.8
2017-Jan-15 09:14 354 1 gusting 6 3.3
2017-Jan-15 09:09 002 4 gusting 6 2.8
2017-Jan-15 09:04 2.8
2017-Jan-15 08:59 011 3 gusting 6 2.8
2017-Jan-15 08:54 008 3 gusting 6 2.8
2017-Jan-15 08:49 006 4 gusting 6 2.8
2017-Jan-15 08:44 007 4 gusting 6 2.2
2017-Jan-15 08:39 359 4 gusting 6 2.2
2017-Jan-15 08:34 337 1 gusting 6 2.2
2017-Jan-15 08:29 337 4 gusting 5 2.2
2017-Jan-15 08:24 295 4 gusting 4 2.2
2017-Jan-15 08:19 264 2.2
2017-Jan-15 08:14 268 1 gusting 7 2.2
2017-Jan-15 08:09 351 2.2
2017-Jan-15 08:04 355 5 gusting 6 2.2
2017-Jan-15 07:54 337 2 gusting 2 1.7
2017-Jan-15 07:49 342 2.2
2017-Jan-15 07:44 342 2.2
2017-Jan-15 07:39 342 1 gusting 4 2.2
2017-Jan-15 07:34 345 2.2
2017-Jan-15 07:29 345 2 gusting 4 2.8
2017-Jan-15 07:20 005 1 gusting 6 3.3
2017-Jan-15 07:15 358 4 gusting 5 3.3
2017-Jan-15 07:10 356 0 gusting 5 3.3
2017-Jan-15 07:04 356 3 gusting 7 3.3
2017-Jan-15 06:54 3.9
2017-Jan-15 06:45 3.9
2017-Jan-15 06:40 349 6 gusting 10 3.9
2017-Jan-15 06:35 259 1 gusting 13 3.9
2017-Jan-15 06:30 352 6 gusting 13 3.9
2017-Jan-15 06:24 297 8 gusting 12 3.9
2017-Jan-15 06:15 233 3 gusting 13 3.9
2017-Jan-15 06:10 311 7 gusting 13 3.9
2017-Jan-15 06:05 278 10 gusting 13 3.3
2017-Jan-15 06:00 278 4 gusting 13 3.3
2017-Jan-15 05:55 314 13 gusting 13 3.3
2017-Jan-15 05:50 297 1 gusting 12 3.3
2017-Jan-15 05:45 235 10 gusting 12 3.3
2017-Jan-15 05:40 217 3 gusting 10 3.3
2017-Jan-15 05:35 327 6 gusting 11 2.8
2017-Jan-15 05:30 239 6 gusting 11 2.8
2017-Jan-15 05:25 224 1 gusting 8 2.8
2017-Jan-15 05:20 253 0 gusting 8 2.8
2017-Jan-15 05:15 332 1 gusting 7 2.8
2017-Jan-15 05:10 332 2.8
2017-Jan-15 05:05 233 3 gusting 9 2.8
2017-Jan-15 05:00 327 4 gusting 8 2.8
2017-Jan-15 04:55 228 4 gusting 7 2.8
2017-Jan-15 04:50 2.8
2017-Jan-15 04:45 295 1 gusting 6 3.3
2017-Jan-15 04:40 332 4 gusting 9 3.9
2017-Jan-15 04:35 286 6 gusting 10 3.9
2017-Jan-15 04:30 287 8 gusting 11 3.9
2017-Jan-15 04:25 345 10 gusting 11 3.9
2017-Jan-15 04:20 346 9 gusting 11 3.9
2017-Jan-15 04:15 345 9 gusting 11 3.3
2017-Jan-15 04:10 347 7 gusting 10 3.3
2017-Jan-15 04:05 355 8 gusting 9 3.3
2017-Jan-15 04:00 347 8 gusting 9 3.3